Погода в Симбирке

Россия / Кемеровская область (Кузбасс)     56°02′44″N   87°10′08″E
темп.,
°C
ветер,
м/с
пор.,
м/с
влажн.,
%
обл.,
%
осадки,
мм/ч
давл.,
гПа
погр.,
м
29 мая, вс
вс2901:00+11в1162100 0.0 101111
04:00+10в116299 0.0 101110
07:00+13ююв0055100 0.0 101256
10:00+19в1139100 0.0 1011458
13:00+22вюв1133100 0.0 10101217
16:00+23в1232100 0.0 10091626
19:00+18зюз61065100 0.0 1009755
22:00+13зюз2797100 2.7 1009445
30 мая, пн
пн3001:00+12з81495100 9.9 1008861
04:00+12зюз6139298 2.8 1009543
07:00+12юз514886 2.8 1009546
10:00+17юз71465100 0.0 10061220
13:00+20зюз8154811 0.3 10042516
16:00+21з8154496 0.0 10043143
19:00+14з6157069 0.6 10051129
22:00+14з6136265 0.0 10061351
31 мая, вт
вт3101:00+14з51266100 0.0 10071192
04:00+13з51168100 0.1 1007955
07:00+12з5981100 0.1 1008727
10:00+14з476294 0.0 10091097
13:00+18з475193 0.1 10071884
16:00+18зсз365476 0.2 10061434
19:00+12зюз3894100 1.5 1006353
22:00+12ююз2596100 0.2 1004180
1 июня, ср
ср101:00+11ю1296100 1.1 100173
04:00+12ююз31096100 4.8 998753
07:00+13зюз499195 5.0 998560
10:00+15юз713735 0.9 9971438
13:00+16юз8146191 1.3 9961971
16:00+14зюз8147197 0.8 9971699
19:00+10з7138626 1.6 9981120
22:00+8зюз4108863 0.0 1001494
2 июня, чт
чт201:00+8юз4109299 0.1 1002428
04:00+6зюз3109490 0.0 1003343
07:00+7зюз4793100 0.6 1004866
10:00+9зюз478168 0.3 1004941
13:00+11зюз466988 1.3 10051326
16:00+13зюз345333 0.4 10041545
19:00+12юз2378100 1.8 1004402
22:00+8ююз5996100 2.5 1006482